QPF
0.00 0.00 0.00 0.00 0.00 0.00 0.00 0.00 0.00 0.00 0.00 0.00 0.01 0.01 0.00 0.02 0.02 0.03 0.01 0.00 0.00 0.00 0.00 0.05 0.01 0.00 0.00 0.01 0.01 0.00 0.00 0.00 0.00 0.00 0.01 0.00 0.00 0.00 0.00 0.01 0.02 0.00 0.00
0.00 0.00 0.00 0.00 0.00 0.00 0.00 0.00 0.00 0.00 0.00 0.00 0.00 0.00 0.00 0.00 0.00 0.00 0.00 0.01 0.01 0.00 0.00 0.01 0.02 0.00 0.00 0.00 0.00 0.00 0.00 0.00 0.00 0.03 0.04 0.01 0.00 0.00 0.00 0.02 0.06 0.03 0.00
0.00 0.00 0.00 0.00 0.00 0.00 0.00 0.00 0.00 0.00 0.00 0.00 0.00 0.00 0.00 0.00 0.00 0.00 0.00 0.00 0.01 0.01 0.01 0.00 0.01 0.00 0.00 0.01 0.00 0.00 0.00 0.00 0.00 0.03 0.10 0.03 0.00 0.00 0.00 0.00 0.06 0.05 0.00
0.00 0.00 0.00 0.00 0.00 0.00 0.00 0.00 0.00 0.00 0.00 0.00 0.00 0.00 0.00 0.00 0.00 0.00 0.00 0.00 0.00 0.00 0.01 0.01 0.00 0.00 0.00 0.01 0.02 0.00 0.00 0.00 0.00 0.02 0.02 0.01 0.00 0.00 0.00 0.00 0.01 0.02 0.01
0.00 0.00 0.00 0.00 0.00 0.00 0.00 0.00 0.00 0.00 0.00 0.00 0.00 0.00 0.00 0.00 0.00 0.00 0.00 0.00 0.00 0.00 0.00 0.00 0.01 0.01 0.00 0.00 0.01 0.03 0.00 0.00 0.02 0.01 0.01 0.01 0.00 0.00 0.00 0.00 0.00 0.00 0.00
0.00 0.00 0.00 0.00 0.00 0.00 0.00 0.00 0.00 0.00 0.00 0.00 0.00 0.00 0.00 0.00 0.00 0.00 0.00 0.00 0.00 0.00 0.00 0.00 0.00 0.00 0.00 0.00 0.00 0.00 0.00 0.00 0.01 0.01 0.00 0.01 0.00 0.00 0.00 0.00 0.00 0.00 0.00
0.00 0.00 0.00 0.00 0.00 0.00 0.00 0.00 0.00 0.00 0.00 0.00 0.00 0.00 0.00 0.00 0.00 0.00 0.00 0.00 0.00 0.00 0.00 0.00 0.00 0.00 0.00 0.00 0.00 0.00 0.00 0.00 0.00 0.00 0.00 0.00 0.00 0.00 0.00 0.00 0.00 0.00 0.00
0.00 0.00 0.00 0.00 0.00 0.00 0.00 0.00 0.00 0.00 0.00 0.00 0.00 0.00 0.00 0.00 0.00 0.00 0.00 0.00 0.00 0.00 0.00 0.00 0.00 0.00 0.00 0.01 0.00 0.00 0.00 0.00 0.00 0.00 0.00 0.00 0.00 0.00 0.00 0.00 0.00 0.00 0.00
0.00 0.00 0.00 0.00 0.00 0.00 0.00 0.00 0.00 0.00 0.00 0.00 0.00 0.00 0.00 0.00 0.00 0.00 0.00 0.00 0.00 0.00 0.00 0.00 0.00 0.00 0.00 0.00 0.00 0.00 0.00 0.00 0.00 0.00 0.00 0.00 0.02 0.01 0.00 0.00 0.00 0.00 0.00
0.00 0.00 0.00 0.00 0.00 0.00 0.00 0.00 0.00 0.00 0.00 0.00 0.00 0.00 0.00 0.00 0.00 0.00 0.00 0.00 0.00 0.00 0.00 0.00 0.00 0.00 0.00 0.00 0.00 0.00 0.00 0.00 0.00 0.00 0.00 0.00 0.01 0.01 0.01 0.01 0.00 0.00 0.00
0.00 0.00 0.00 0.00 0.00 0.00 0.00 0.00 0.00 0.00 0.00 0.00 0.00 0.00 0.00 0.00 0.00 0.00 0.00 0.00 0.00 0.00 0.00 0.00 0.00 0.00 0.00 0.00 0.00 0.00 0.00 0.00 0.00 0.00 0.00 0.00 0.00 0.01 0.00 0.00 0.00 0.00 0.00
0.00 0.00 0.00 0.00 0.00 0.00 0.00 0.00 0.00 0.00 0.00 0.00 0.00 0.00 0.00 0.00 0.00 0.00 0.00 0.00 0.00 0.00 0.00 0.00 0.00 0.00 0.00 0.00 0.00 0.00 0.00 0.00 0.00 0.00 0.00 0.00 0.00 0.00 0.00 0.00 0.00 0.00 0.00
0.00 0.00 0.00 0.00 0.00 0.00 0.00 0.00 0.00 0.00 0.00 0.00 0.00 0.00 0.00 0.00 0.00 0.00 0.00 0.00 0.00 0.00 0.00 0.00 0.00 0.00 0.00 0.00 0.00 0.00 0.00 0.00 0.00 0.00 0.00 0.00 0.00 0.00 0.00 0.00 0.00 0.00 0.00
0.00 0.00 0.00 0.00 0.00 0.00 0.00 0.00 0.00 0.00 0.00 0.00 0.00 0.00 0.00 0.00 0.00 0.00 0.00 0.00 0.00 0.00 0.00 0.00 0.00 0.00 0.00 0.00 0.00 0.00 0.00 0.00 0.00 0.00 0.00 0.00 0.00 0.00 0.00 0.00 0.00 0.00 0.00
0.00 0.00 0.00 0.00 0.00 0.00 0.00 0.00 0.00 0.00 0.00 0.00 0.00 0.00 0.00 0.00 0.00 0.00 0.00 0.00 0.00 0.00 0.00 0.00 0.00 0.00 0.00 0.00 0.00 0.00 0.00 0.00 0.00 0.00 0.00 0.00 0.00 0.00 0.00 0.00 0.00 0.00 0.00
0.00 0.00 0.00 0.00 0.00 0.00 0.00 0.00 0.00 0.00 0.00 0.00 0.00 0.00 0.00 0.00 0.00 0.00 0.00 0.00 0.00 0.00 0.00 0.00 0.00 0.00 0.00 0.00 0.00 0.00 0.00 0.00 0.00 0.00 0.00 0.00 0.00 0.00 0.00 0.00 0.00 0.00 0.00
0.00 0.00 0.00 0.00 0.00 0.00 0.00 0.00 0.00 0.00 0.00 0.00 0.00 0.00 0.00 0.00 0.00 0.00 0.00 0.00 0.00 0.00 0.00 0.00 0.00 0.00 0.00 0.00 0.00 0.00 0.00 0.00 0.00 0.00 0.00 0.00 0.00 0.00 0.00 0.00 0.00 0.00 0.00
0.00 0.00 0.00 0.00 0.00 0.00 0.00 0.00 0.00 0.00 0.00 0.00 0.00 0.00 0.00 0.00 0.00 0.00 0.00 0.00 0.00 0.00 0.00 0.00 0.00 0.00 0.00 0.00 0.00 0.00 0.00 0.00 0.00 0.00 0.00 0.00 0.00 0.00 0.00 0.00 0.00 0.00 0.00
0.00 0.00 0.00 0.00 0.00 0.00 0.00 0.00 0.00 0.00 0.00 0.00 0.00 0.00 0.00 0.00 0.00 0.00 0.00 0.00 0.00 0.00 0.00 0.00 0.00 0.00 0.00 0.00 0.00 0.00 0.00 0.00 0.00 0.00 0.00 0.00 0.00 0.00 0.00 0.00 0.00 0.00 0.00
0.00 0.00 0.00 0.00 0.00 0.00 0.00 0.00 0.00 0.00 0.00 0.00 0.00 0.00 0.00 0.00 0.00 0.00 0.00 0.00 0.00 0.00 0.00 0.00 0.00 0.00 0.00 0.00 0.00 0.00 0.00 0.00 0.00 0.00 0.00 0.00 0.00 0.00 0.00 0.00 0.00 0.00 0.00
0.00 0.00 0.00 0.00 0.00 0.00 0.00 0.00 0.00 0.00 0.00 0.00 0.00 0.00 0.00 0.00 0.00 0.00 0.00 0.00 0.00 0.00 0.00 0.00 0.00 0.00 0.00 0.00 0.00 0.00 0.00 0.00 0.00 0.00 0.00 0.00 0.00 0.00 0.00 0.00 0.00 0.00 0.00
0.00 0.00 0.00 0.00 0.00 0.00 0.00 0.00 0.00 0.00 0.00 0.00 0.00 0.00 0.00 0.00 0.00 0.00 0.00 0.00 0.00 0.00 0.00 0.00 0.00 0.00 0.00 0.00 0.00 0.00 0.00 0.00 0.00 0.00 0.00 0.00 0.00 0.00 0.00 0.00 0.00 0.00 0.00
0.00 0.00 0.00 0.00 0.00 0.00 0.00 0.00 0.00 0.00 0.00 0.00 0.00 0.00 0.00 0.00 0.00 0.00 0.00 0.00 0.00 0.00 0.00 0.00 0.00 0.00 0.00 0.00 0.00 0.00 0.00 0.00 0.00 0.00 0.00 0.00 0.00 0.00 0.00 0.00 0.00 0.00 0.00
0.00 0.00 0.00 0.00 0.00 0.00 0.00 0.00 0.00 0.00 0.00 0.00 0.00 0.00 0.00 0.00 0.00 0.00 0.00 0.00 0.00 0.00 0.00 0.00 0.00 0.00 0.00 0.00 0.00 0.00 0.00 0.00 0.00 0.00 0.00 0.00 0.00 0.00 0.00 0.00 0.00 0.00 0.00
0.00 0.00 0.00 0.00 0.00 0.00 0.00 0.00 0.00 0.00 0.00 0.00 0.00 0.00 0.00 0.00 0.00 0.00 0.00 0.00 0.00 0.00 0.00 0.00 0.00 0.00 0.00 0.00 0.00 0.00 0.00 0.00 0.00 0.00 0.00 0.00 0.00 0.00 0.00 0.00 0.00 0.00 0.00
0.00 0.00 0.00 0.00 0.00 0.00 0.00 0.00 0.00 0.00 0.00 0.00 0.00 0.00 0.00 0.00 0.00 0.00 0.00 0.00 0.00 0.00 0.00 0.00 0.00 0.00 0.00 0.00 0.00 0.00 0.00 0.00 0.00 0.00 0.00 0.00 0.00 0.00 0.00 0.00 0.00 0.00 0.00
MSLP
1013.03 1013.41 1013.64 1013.87 1014.11 1014.28 1014.43 1014.53 1014.64 1014.72 1014.82 1014.95 1015.06 1015.14 1015.24 1015.22 1015.18 1015.21 1015.23 1015.22 1015.20 1015.14 1015.27 1015.30 1015.26 1015.24 1015.21 1015.20 1015.28 1015.29 1015.35 1015.30 1015.29 1015.23 1015.31 1015.47 1015.48 1015.47 1015.43 1015.40 1015.48 1015.78 1015.92
1012.45 1013.21 1013.67 1013.86 1014.06 1014.33 1014.49 1014.60 1014.76 1014.91 1015.04 1015.20 1015.36 1015.47 1015.51 1015.48 1015.57 1015.61 1015.62 1015.62 1015.54 1015.54 1015.45 1015.53 1015.55 1015.52 1015.49 1015.46 1015.49 1015.55 1015.58 1015.54 1015.56 1015.72 1015.64 1015.54 1015.76 1015.81 1015.85 1015.85 1015.94 1016.18 1016.35
1012.25 1013.10 1013.65 1013.91 1014.06 1014.30 1014.47 1014.70 1014.90 1015.13 1015.33 1015.47 1015.61 1015.71 1015.80 1015.84 1015.84 1015.90 1015.99 1015.96 1015.94 1015.85 1015.80 1015.76 1015.75 1015.79 1015.78 1015.67 1015.68 1015.75 1015.74 1015.77 1015.88 1015.82 1015.77 1015.87 1015.98 1016.05 1016.16 1016.28 1016.44 1016.46 1016.61
1011.88 1012.69 1013.37 1013.88 1014.11 1014.34 1014.54 1014.72 1015.01 1015.21 1015.47 1015.67 1015.77 1015.89 1016.00 1016.09 1016.14 1016.22 1016.22 1016.23 1016.31 1016.32 1016.12 1016.05 1016.02 1015.99 1016.00 1015.92 1015.87 1015.94 1015.95 1015.94 1015.87 1015.75 1015.71 1015.83 1016.09 1016.31 1016.38 1016.54 1016.63 1016.73 1016.84
1011.48 1011.94 1012.99 1013.70 1014.09 1014.42 1014.65 1014.81 1015.07 1015.25 1015.57 1015.79 1015.93 1016.03 1016.14 1016.28 1016.43 1016.47 1016.44 1016.48 1016.64 1016.55 1016.52 1016.43 1016.34 1016.29 1016.23 1016.19 1016.10 1016.17 1016.21 1016.13 1015.96 1015.88 1016.06 1016.31 1016.53 1016.59 1016.63 1016.69 1016.81 1016.94 1017.03
1011.37 1012.20 1013.11 1013.62 1014.03 1014.37 1014.77 1014.90 1015.16 1015.32 1015.61 1015.88 1016.01 1016.18 1016.26 1016.43 1016.57 1016.75 1016.81 1016.83 1016.86 1016.79 1016.79 1016.69 1016.64 1016.55 1016.45 1016.35 1016.42 1016.43 1016.45 1016.38 1016.27 1016.52 1016.65 1016.87 1016.96 1016.86 1016.88 1016.92 1016.95 1017.06 1017.16
1011.32 1012.26 1013.04 1013.52 1014.00 1014.26 1014.66 1015.00 1015.18 1015.46 1015.62 1015.86 1016.02 1016.17 1016.35 1016.56 1016.70 1016.86 1017.06 1017.16 1017.15 1017.05 1016.99 1016.99 1016.89 1016.78 1016.60 1016.44 1016.62 1016.64 1016.64 1016.55 1016.60 1016.85 1017.09 1017.22 1017.38 1017.14 1017.03 1017.04 1017.07 1017.12 1017.19
1010.98 1011.81 1012.82 1013.55 1014.03 1014.30 1014.58 1014.89 1015.14 1015.44 1015.68 1015.92 1016.06 1016.21 1016.37 1016.64 1016.87 1017.00 1017.14 1017.32 1017.33 1017.41 1017.35 1017.31 1017.24 1017.13 1016.94 1016.77 1016.82 1016.86 1016.82 1016.56 1016.73 1017.06 1017.37 1017.54 1017.60 1017.42 1017.31 1017.24 1017.18 1017.17 1017.20
1010.53 1011.44 1012.39 1013.30 1014.02 1014.43 1014.64 1014.85 1015.04 1015.36 1015.54 1015.88 1016.07 1016.24 1016.40 1016.66 1016.96 1017.16 1017.23 1017.43 1017.49 1017.56 1017.64 1017.67 1017.58 1017.45 1017.31 1017.29 1017.24 1017.16 1017.04 1016.91 1017.00 1017.25 1017.51 1017.96 1017.68 1017.48 1017.43 1017.40 1017.29 1017.23 1017.26
1010.49 1011.09 1011.75 1012.48 1013.51 1014.24 1014.58 1014.66 1014.93 1015.20 1015.57 1015.79 1016.06 1016.22 1016.51 1016.71 1016.97 1017.25 1017.33 1017.54 1017.62 1017.74 1017.76 1017.85 1017.85 1017.73 1017.60 1017.51 1017.46 1017.38 1017.24 1017.16 1017.14 1017.70 1017.97 1018.20 1017.89 1017.75 1017.71 1017.54 1017.46 1017.38 1017.34
1010.25 1010.69 1011.18 1011.84 1012.78 1013.34 1014.07 1014.64 1014.97 1015.29 1015.60 1015.85 1016.08 1016.31 1016.45 1016.69 1016.91 1017.38 1017.47 1017.70 1017.77 1017.83 1017.91 1017.89 1017.89 1017.88 1017.78 1017.60 1017.48 1017.36 1017.28 1017.21 1017.41 1018.25 1018.47 1018.48 1018.30 1018.10 1018.10 1017.95 1017.91 1017.79 1017.67
1010.13 1010.44 1010.78 1011.40 1012.05 1012.56 1013.23 1014.24 1015.03 1015.40 1015.61 1015.88 1016.04 1016.31 1016.27 1016.33 1016.55 1017.12 1017.60 1017.79 1017.86 1017.83 1017.84 1017.79 1017.76 1017.71 1017.65 1017.80 1017.63 1017.44 1017.40 1017.30 1017.63 1018.40 1018.85 1018.98 1018.77 1018.54 1018.44 1018.36 1018.28 1018.24 1018.16
1009.62 1010.04 1010.39 1010.69 1011.04 1011.60 1012.27 1013.51 1014.21 1014.75 1015.26 1015.48 1015.55 1015.84 1015.90 1016.18 1016.72 1017.08 1017.57 1017.70 1017.81 1017.71 1017.91 1017.72 1017.73 1017.84 1017.71 1017.71 1017.67 1017.73 1017.61 1017.59 1017.97 1018.51 1018.89 1019.12 1019.10 1018.90 1018.78 1018.74 1018.60 1018.52 1018.46
1008.78 1009.23 1009.63 1010.15 1010.35 1010.88 1011.43 1012.58 1013.13 1013.75 1014.27 1014.63 1014.81 1015.08 1015.44 1015.98 1016.45 1016.73 1016.99 1017.24 1017.40 1017.39 1017.50 1017.61 1017.81 1017.87 1017.78 1017.63 1017.72 1017.74 1017.79 1017.94 1018.24 1018.80 1018.98 1019.18 1019.23 1019.10 1019.03 1018.97 1018.86 1018.77 1018.62
1008.03 1008.56 1009.05 1009.73 1010.05 1010.39 1011.14 1011.70 1012.27 1012.86 1013.34 1013.83 1014.32 1014.62 1014.90 1015.54 1016.10 1016.09 1016.44 1016.77 1017.05 1017.10 1017.34 1017.61 1017.73 1017.76 1017.78 1017.78 1017.83 1017.90 1018.02 1018.07 1018.28 1018.84 1019.14 1019.17 1019.35 1019.30 1019.23 1019.17 1019.11 1018.99 1018.91
1007.71 1007.98 1008.48 1009.15 1009.94 1010.22 1010.67 1011.31 1011.85 1012.31 1012.78 1013.32 1013.83 1014.20 1014.48 1014.96 1015.32 1015.71 1016.14 1016.47 1016.71 1016.84 1017.02 1017.33 1017.58 1017.69 1017.81 1017.96 1018.04 1017.96 1018.07 1018.16 1018.29 1018.59 1019.09 1019.28 1019.33 1019.44 1019.45 1019.45 1019.41 1019.29 1019.18
1007.21 1007.28 1007.63 1008.31 1009.00 1009.81 1010.19 1010.77 1011.58 1012.11 1012.56 1013.14 1013.45 1013.69 1014.12 1014.50 1014.84 1015.27 1015.80 1016.30 1016.40 1016.54 1016.76 1017.01 1017.28 1017.52 1017.81 1017.78 1018.08 1018.05 1018.06 1018.13 1018.26 1018.49 1018.77 1019.26 1019.35 1019.43 1019.52 1019.58 1019.62 1019.60 1019.49
1006.64 1006.94 1007.01 1007.47 1008.28 1009.16 1009.91 1010.59 1011.22 1011.74 1012.36 1012.90 1013.31 1013.57 1013.89 1014.24 1014.44 1014.89 1015.55 1015.93 1016.02 1016.35 1016.66 1017.10 1017.39 1017.64 1017.76 1017.92 1018.06 1018.01 1018.14 1018.14 1018.19 1018.38 1018.59 1018.95 1019.20 1019.44 1019.54 1019.51 1019.55 1019.64 1019.60
1005.76 1006.30 1006.71 1006.99 1007.64 1008.42 1009.14 1009.85 1010.66 1011.32 1012.04 1012.51 1012.98 1013.30 1013.55 1013.88 1014.10 1014.50 1014.99 1015.31 1015.58 1016.14 1016.66 1017.02 1017.29 1017.55 1017.83 1017.94 1017.97 1017.94 1017.97 1018.15 1018.12 1018.05 1018.47 1018.66 1018.89 1019.06 1019.26 1019.32 1019.30 1019.32 1019.44
1006.77 1005.89 1006.13 1006.55 1007.23 1007.85 1008.41 1009.10 1010.04 1010.86 1011.44 1011.83 1012.41 1012.83 1013.07 1013.46 1013.79 1014.16 1014.56 1014.92 1015.29 1016.09 1016.50 1016.77 1017.06 1017.32 1017.53 1017.74 1017.77 1017.85 1017.80 1017.82 1017.76 1018.15 1018.29 1018.30 1018.60 1018.76 1018.89 1019.15 1019.26 1019.20 1019.13
1008.83 1008.66 1008.65 1008.51 1007.58 1007.71 1008.25 1008.76 1009.73 1010.65 1011.27 1011.73 1012.22 1012.42 1012.80 1013.16 1013.46 1013.88 1014.26 1014.72 1015.02 1015.66 1016.05 1016.39 1016.75 1017.23 1017.51 1017.61 1018.19 1018.15 1017.87 1017.56 1017.71 1017.84 1017.87 1018.09 1018.25 1018.39 1018.54 1018.79 1018.99 1018.98 1018.92
1010.61 1010.41 1009.88 1009.62 1009.44 1009.26 1008.39 1008.00 1008.46 1009.19 1010.08 1010.86 1011.59 1011.97 1012.21 1012.51 1012.78 1013.25 1013.85 1014.24 1014.70 1015.29 1015.78 1016.07 1016.43 1017.01 1017.40 1017.46 1018.08 1018.41 1018.36 1018.08 1017.70 1017.57 1017.71 1017.91 1018.07 1018.20 1018.30 1018.35 1018.55 1018.62 1018.68
1011.69 1011.62 1011.48 1010.99 1010.39 1010.12 1009.66 1008.90 1008.11 1008.66 1009.35 1010.04 1010.69 1011.12 1011.45 1011.91 1012.40 1012.69 1013.16 1013.70 1014.15 1014.66 1015.20 1015.54 1015.95 1016.59 1017.28 1017.39 1017.46 1018.04 1018.33 1018.46 1018.07 1017.59 1017.60 1017.70 1017.92 1018.23 1018.32 1018.28 1018.19 1018.26 1018.31
1012.63 1012.53 1012.32 1011.96 1011.39 1010.65 1010.39 1010.26 1009.88 1008.48 1008.81 1008.97 1009.59 1010.33 1010.86 1011.17 1011.82 1012.34 1012.69 1013.08 1013.59 1014.08 1014.62 1015.01 1015.52 1016.03 1016.64 1017.36 1017.48 1017.39 1017.66 1017.89 1018.31 1018.46 1017.95 1017.87 1017.71 1018.02 1018.11 1018.12 1018.17 1018.10 1018.04
1013.49 1013.14 1012.85 1012.43 1011.84 1011.41 1010.72 1010.04 1010.02 1009.84 1008.73 1008.44 1008.72 1009.49 1010.18 1010.72 1011.00 1011.55 1012.08 1012.58 1012.97 1013.45 1013.93 1014.43 1015.01 1015.52 1016.02 1016.74 1017.02 1017.46 1017.67 1017.75 1017.98 1018.57 1018.80 1018.41 1017.97 1017.82 1017.96 1017.99 1017.82 1017.87 1017.76
1013.76 1013.33 1013.01 1012.64 1012.27 1011.60 1010.98 1010.43 1009.88 1009.41 1009.08 1008.47 1008.46 1008.84 1009.43 1010.07 1010.70 1010.98 1011.43 1011.95 1012.23 1012.73 1013.20 1013.73 1014.32 1014.94 1015.50 1015.98 1016.45 1016.91 1017.34 1017.73 1018.05 1018.48 1018.86 1018.78 1018.52 1018.24 1017.89 1017.77 1017.81 1017.71 1017.51
Thickness
5805 5801 5799 5796 5794 5791 5789 5786 5783 5780 5777 5774 5772 5770 5768 5767 5766 5764 5762 5761 5759 5759 5757 5755 5754 5753 5752 5751 5750 5749 5748 5748 5747 5747 5746 5745 5746 5746 5747 5747 5746 5743 5742
5811 5804 5800 5797 5795 5791 5788 5786 5783 5780 5777 5774 5771 5769 5767 5766 5764 5762 5760 5758 5757 5756 5756 5754 5753 5752 5751 5751 5750 5749 5748 5748 5746 5745 5745 5745 5743 5742 5742 5742 5741 5739 5738
5813 5805 5800 5798 5796 5792 5789 5786 5783 5779 5775 5772 5770 5768 5766 5764 5762 5760 5758 5756 5755 5755 5754 5754 5753 5751 5750 5750 5749 5748 5748 5747 5745 5744 5744 5743 5742 5741 5739 5738 5736 5735 5733
5815 5808 5802 5798 5795 5792 5790 5787 5783 5780 5776 5772 5770 5767 5765 5763 5761 5759 5757 5755 5753 5752 5752 5752 5751 5750 5749 5748 5748 5747 5746 5746 5746 5746 5745 5744 5741 5738 5737 5735 5734 5732 5729
5818 5814 5805 5799 5795 5792 5790 5787 5783 5781 5776 5772 5770 5767 5765 5762 5759 5757 5755 5754 5752 5752 5750 5750 5749 5748 5748 5746 5746 5745 5744 5744 5744 5744 5743 5741 5738 5737 5736 5735 5733 5730 5728
5818 5811 5803 5799 5795 5792 5788 5786 5782 5780 5776 5772 5770 5767 5765 5762 5759 5756 5754 5752 5750 5750 5749 5749 5748 5747 5746 5745 5744 5743 5742 5743 5743 5740 5739 5737 5736 5735 5735 5734 5733 5730 5728
5817 5808 5802 5798 5794 5792 5788 5784 5782 5779 5776 5773 5770 5768 5764 5761 5758 5756 5752 5750 5748 5747 5747 5746 5746 5746 5745 5745 5743 5742 5742 5742 5742 5739 5736 5735 5733 5734 5735 5734 5733 5732 5730
5817 5810 5801 5795 5791 5789 5786 5784 5781 5778 5775 5772 5770 5767 5764 5760 5757 5754 5752 5749 5747 5745 5744 5743 5743 5743 5743 5742 5742 5741 5741 5742 5740 5738 5735 5733 5732 5732 5733 5733 5733 5733 5732
5818 5810 5802 5794 5788 5785 5783 5781 5780 5777 5775 5771 5768 5766 5763 5759 5756 5752 5750 5748 5746 5744 5742 5740 5740 5740 5740 5738 5738 5738 5739 5738 5738 5735 5732 5729 5730 5731 5731 5731 5732 5731 5731
5815 5810 5804 5798 5789 5784 5781 5780 5778 5775 5773 5770 5767 5764 5761 5758 5754 5751 5748 5745 5743 5742 5740 5738 5737 5737 5737 5736 5735 5735 5735 5736 5736 5729 5728 5726 5727 5728 5727 5728 5729 5729 5729
5811 5809 5805 5802 5791 5787 5781 5776 5773 5770 5768 5766 5764 5761 5760 5757 5754 5749 5746 5743 5741 5739 5738 5736 5735 5734 5733 5733 5733 5733 5732 5733 5732 5725 5723 5721 5721 5722 5722 5723 5723 5724 5725
5803 5804 5804 5799 5794 5788 5782 5775 5769 5765 5764 5762 5760 5758 5759 5757 5755 5749 5744 5741 5739 5738 5737 5736 5734 5733 5732 5731 5731 5731 5731 5730 5728 5721 5718 5714 5715 5716 5717 5717 5717 5717 5718
5805 5803 5800 5798 5796 5792 5786 5778 5771 5766 5762 5760 5760 5758 5758 5755 5751 5747 5743 5741 5739 5738 5736 5735 5733 5731 5731 5729 5728 5727 5726 5726 5723 5718 5713 5711 5710 5710 5711 5711 5712 5712 5712
5806 5805 5802 5798 5797 5794 5788 5782 5774 5770 5764 5762 5761 5757 5756 5752 5748 5747 5744 5741 5739 5738 5736 5734 5732 5729 5728 5727 5725 5724 5723 5721 5719 5713 5709 5707 5706 5706 5705 5705 5706 5706 5707
5803 5802 5800 5796 5793 5792 5784 5781 5776 5771 5767 5762 5759 5756 5754 5750 5746 5745 5743 5740 5737 5735 5733 5730 5728 5727 5725 5723 5722 5719 5718 5716 5714 5710 5705 5703 5700 5700 5700 5699 5699 5700 5701
5799 5798 5798 5793 5786 5785 5781 5777 5774 5769 5766 5761 5757 5753 5750 5747 5745 5742 5739 5737 5734 5732 5730 5727 5724 5722 5720 5718 5716 5715 5713 5710 5708 5706 5701 5698 5696 5694 5693 5692 5692 5693 5693
5798 5797 5795 5793 5791 5779 5777 5775 5768 5762 5759 5756 5754 5750 5746 5744 5741 5738 5734 5731 5730 5727 5725 5722 5720 5717 5714 5713 5711 5709 5707 5706 5703 5700 5698 5694 5690 5688 5687 5685 5685 5685 5686
5794 5791 5790 5789 5787 5780 5768 5764 5761 5758 5752 5749 5746 5744 5740 5737 5736 5734 5729 5726 5724 5721 5719 5716 5713 5710 5708 5706 5704 5704 5702 5700 5698 5696 5692 5689 5687 5683 5681 5680 5679 5679 5679
5798 5791 5787 5781 5777 5776 5770 5760 5755 5752 5747 5742 5738 5737 5735 5731 5729 5728 5724 5721 5719 5714 5711 5709 5706 5703 5700 5699 5698 5698 5698 5695 5692 5691 5688 5685 5683 5680 5678 5675 5675 5675 5674
5781 5787 5783 5777 5768 5766 5766 5758 5749 5745 5743 5739 5733 5731 5729 5727 5724 5721 5718 5716 5713 5707 5704 5702 5699 5697 5695 5693 5693 5692 5691 5691 5689 5685 5683 5682 5679 5676 5673 5670 5668 5669 5668
5751 5752 5752 5750 5758 5751 5748 5748 5738 5729 5729 5728 5725 5723 5722 5720 5716 5712 5711 5708 5706 5701 5698 5696 5693 5690 5687 5687 5681 5681 5683 5686 5682 5680 5678 5676 5675 5673 5670 5666 5664 5662 5662
5727 5727 5731 5733 5731 5731 5734 5739 5740 5731 5724 5722 5718 5716 5716 5714 5710 5706 5703 5701 5699 5694 5691 5689 5687 5682 5680 5678 5671 5670 5668 5672 5675 5674 5673 5670 5668 5666 5664 5662 5659 5657 5656
5705 5704 5705 5709 5714 5714 5715 5719 5726 5725 5718 5712 5712 5709 5707 5704 5701 5698 5696 5695 5693 5689 5685 5683 5680 5675 5669 5671 5668 5663 5659 5658 5663 5666 5665 5663 5661 5658 5656 5654 5654 5652 5650
5684 5683 5683 5686 5690 5695 5696 5694 5697 5709 5708 5708 5705 5702 5697 5697 5694 5689 5688 5687 5685 5682 5679 5676 5673 5667 5664 5660 5659 5660 5659 5656 5650 5649 5654 5654 5654 5651 5649 5647 5645 5644 5642
5661 5662 5660 5662 5667 5669 5675 5679 5679 5682 5695 5699 5697 5692 5689 5686 5686 5683 5679 5679 5677 5675 5673 5669 5665 5661 5657 5654 5653 5648 5648 5647 5646 5638 5632 5639 5643 5642 5640 5637 5636 5634 5633
5636 5637 5639 5640 5643 5647 5651 5656 5661 5665 5671 5679 5682 5682 5680 5676 5673 5674 5672 5670 5670 5668 5666 5663 5659 5655 5650 5648 5647 5645 5640 5636 5633 5630 5625 5625 5626 5627 5630 5629 5627 5625 5623